Volver al catálogo

STARLINK-3227

ActivoComunicacionesVLEO
NORAD 49765·PAYLOAD·🇺🇸 United States

Lanzado Dec 2, 2021 desde Cape Canaveral Space Force Station

Loading…

Próximos Pases (próximas 24 horas)

TLE

ActualizadoSource: CelesTrak SupGP

Época: Sep 14, 2026, 21:06 UTC

1 49765C 21115AT  26257.87965278 -.00028675  00000+0 -92214-3 0  2572
2 49765  53.1592 355.3840 0001208  81.3668 128.2628 15.31715584    19

Sigue STARLINK-3227 en tiempo real con AllMySat

Download on the App Store